Retour au catalogue

STARLINK-3140

ActifCommunicationsVLEO
NORAD 49460·PAYLOAD·🇺🇸 United States

Lancé Nov 13, 2021 depuis Cape Canaveral Space Force Station

Loading…

Prochains Passages (prochaines 24 heures)

TLE

FraisSource: CelesTrak SupGP

Époque: Sep 14, 2026, 21:13 UTC

1 49460C 21104BE  26257.88451389  .00028464  00000+0  84131-3 0  2579
2 49460  53.1587  77.6260 0001398  87.0759   1.2785 15.34363561    10

Suivez STARLINK-3140 en temps réel avec AllMySat

Download on the App Store